Wind_Speed
9 10 11 11 12 13 14 14 15 14 12 11 12 12 12 12 11 11 11 10 10 10 9 8 7 6 5 5 9 16 13 12 11 11 12 14 15 19 21 19 12 9 11 8 9 11 9
14 14 14 14 15 15 14 14 14 13 14 15 15 14 13 14 13 12 12 12 10 9 8 8 8 8 5 4 6 13 18 16 14 13 17 16 17 19 21 19 13 12 3 10 5 5 11
18 17 16 16 17 17 18 17 16 16 15 15 17 18 18 17 15 14 15 15 14 12 11 10 10 9 7 5 4 11 13 20 18 16 18 19 24 24 23 22 15 14 10 8 4 17 19
18 18 18 16 14 14 14 15 16 18 19 19 19 20 19 17 17 18 17 16 15 16 15 16 13 12 13 7 5 5 10 17 22 20 19 24 27 24 26 19 19 16 15 11 17 16 21
14 14 13 13 14 15 15 16 16 16 16 18 20 21 21 20 21 20 20 19 18 18 19 19 17 15 16 11 8 6 6 13 23 25 24 24 28 30 30 29 24 21 16 14 15 27 21
15 14 15 16 18 19 20 20 20 21 21 21 22 23 24 24 23 23 23 23 21 21 21 22 16 17 16 13 11 9 7 7 14 26 29 27 27 32 30 31 26 23 20 17 17 14 25
21 22 22 22 23 23 23 23 23 23 23 22 22 23 24 23 23 25 28 26 24 25 21 23 17 17 16 17 15 14 10 10 12 17 26 30 30 24 25 24 23 24 26 19 17 28 27
27 27 27 28 29 30 30 30 29 29 29 29 29 28 28 29 26 29 29 30 30 31 26 26 24 14 21 19 18 18 16 13 11 12 18 27 25 25 25 26 27 27 25 17 24 35 29
30 31 33 34 33 34 35 37 37 35 35 35 36 35 33 36 35 32 33 32 32 33 29 24 30 24 24 21 16 19 22 19 15 14 14 16 16 28 30 30 28 29 25 23 29 32 34
35 35 35 35 36 37 38 40 41 42 42 41 40 40 39 37 41 37 39 32 39 37 38 24 33 30 27 27 23 22 21 24 25 18 19 16 18 25 32 33 29 28 23 26 28 20 25
41 40 41 41 41 41 42 42 42 44 45 46 45 44 42 43 45 46 44 41 40 39 47 36 36 30 30 31 26 28 27 26 23 25 28 14 19 18 25 30 33 18 31 30 27 22 29
47 47 47 48 48 48 49 49 50 50 50 50 50 49 46 46 44 48 49 45 44 46 51 42 45 39 32 29 28 29 32 33 28 31 33 24 23 22 18 27 33 26 32 38 33 24 37
49 51 52 53 54 55 56 56 56 56 56 56 56 56 56 54 55 50 51 52 52 52 51 47 46 47 43 39 37 38 36 36 35 34 33 25 27 26 23 24 30 35 36 43 44 41 44
52 54 56 58 60 61 62 64 64 63 61 60 59 59 59 61 58 59 56 57 58 56 54 47 44 50 50 46 43 40 41 40 39 39 35 34 33 29 25 27 28 31 41 46 51 49 42
59 60 62 63 64 65 67 69 69 69 69 68 65 66 65 66 65 63 62 63 62 57 59 60 59 58 56 57 52 48 47 44 39 38 40 38 36 28 32 28 31 33 40 38 46 48 46
65 68 69 71 71 73 73 74 75 75 75 75 73 72 69 71 69 68 69 68 64 59 61 62 64 62 61 62 55 51 49 47 48 41 39 39 41 34 33 34 36 39 32 35 46 50 52
72 75 78 80 81 81 82 83 82 80 80 81 80 80 68 68 72 73 72 70 63 61 61 66 66 67 67 67 67 63 57 48 45 46 40 40 43 41 39 44 40 39 41 45 39 46 48
80 83 84 85 86 87 87 88 88 88 88 89 87 86 71 72 71 74 72 68 67 65 66 70 72 73 73 73 73 72 68 62 32 35 44 42 43 50 48 44 40 42 40 42 48 46 49
83 86 87 90 91 92 93 93 93 93 92 89 87 83 62 64 71 64 64 63 65 69 74 77 79 79 74 73 77 76 73 61 47 46 45 35 50 49 51 50 49 47 42 45 44 46 50
87 89 89 90 90 89 87 85 81 78 70 71 69 62 47 48 55 60 63 67 70 75 81 85 85 86 87 82 80 79 79 69 56 57 53 46 48 57 61 56 50 50 45 42 44 51 48
86 83 77 71 70 66 64 63 58 51 45 41 41 41 37 33 40 48 47 47 59 71 68 76 85 85 85 92 89 86 85 80 72 68 67 60 61 57 57 52 54 53 44 42 49 47 49
74 68 64 60 54 50 48 47 39 21 21 21 20 23 26 26 30 33 38 47 39 42 63 65 73 67 78 89 94 90 90 87 82 78 75 71 65 56 54 54 50 55 54 49 44 43 45
62 58 56 50 46 42 39 34 24 17 17 14 17 17 18 19 24 29 33 40 47 40 42 42 47 63 64 77 94 92 92 91 88 79 71 71 68 60 64 58 53 55 64 57 44 39 39
55 52 48 45 42 37 33 28 19 15 17 13 20 22 18 14 21 25 30 37 44 46 52 53 43 49 62 65 75 93 92 94 92 83 69 68 66 61 64 62 62 65 56 54 52 46 42
46 44 42 40 37 34 29 26 19 15 15 16 20 22 21 17 17 21 28 32 30 30 37 45 54 38 43 66 54 68 85 91 94 87 74 67 59 62 57 68 70 65 55 52 49 46 47
47 46 42 38 34 31 27 23 18 16 15 16 18 19 22 21 16 19 23 25 24 19 23 28 28 37 29 35 47 54 63 77 89 91 79 58 52 52 48 67 77 68 58 45 49 48 47
48 44 40 35 31 28 26 22 19 17 17 19 21 22 22 23 17 19 17 20 22 19 21 19 16 32 40 30 37 51 50 61 74 90 77 59 49 43 45 56 71 62 63 45 37 52 50
42 36 34 30 29 27 24 21 18 16 15 17 22 23 22 20 14 18 18 16 18 18 25 20 17 12 30 33 25 42 46 51 54 66 76 61 57 36 40 49 57 45 42 48 46 52 51
34 35 32 30 29 27 24 20 18 16 15 15 13 12 12 11 9 17 19 19 17 18 20 31 19 5 23 30 15 20 42 49 51 61 84 66 57 44 42 41 44 40 45 48 56 58 52
Wind_Direction
309 310 313 314 314 315 314 308 303 303 302 303 317 326 330 321 321 322 322 325 327 331 333 345 338 334 328 252 243 234 225 222 230 209 207 211 208 194 190 198 168 141 87 68 44 20 143
293 295 298 300 301 301 301 304 308 303 300 294 298 307 315 314 312 312 313 316 314 318 331 338 331 339 325 305 228 240 228 217 219 215 211 204 207 199 195 204 191 167 106 161 110 11 319
282 280 281 285 291 291 290 289 289 287 286 286 286 288 295 297 295 298 301 303 298 297 308 320 323 328 312 307 275 237 231 224 224 218 215 207 209 211 205 215 202 190 174 174 84 317 272
284 284 284 282 289 288 287 285 281 280 282 282 280 282 283 285 286 286 287 288 291 288 289 301 307 318 308 303 292 263 234 225 221 224 219 214 217 219 226 220 224 205 181 190 242 251 257
293 288 284 280 280 286 290 291 290 286 283 284 284 283 283 283 284 284 283 281 281 281 282 287 297 299 298 301 290 268 243 228 221 220 226 220 221 225 225 226 235 235 212 172 224 233 206
293 290 288 286 285 287 288 289 290 289 289 287 287 285 284 281 278 276 274 272 271 272 275 277 279 284 287 284 282 276 262 238 228 223 226 229 225 224 231 232 232 244 239 181 224 269 270
292 291 288 284 282 282 286 288 286 283 282 280 279 284 285 283 281 279 276 269 270 271 267 269 273 272 270 276 269 268 254 240 235 237 231 232 234 234 240 246 237 230 230 176 206 237 251
293 290 288 286 287 286 284 280 279 281 277 274 274 276 277 279 285 281 271 272 271 268 262 266 270 255 267 257 258 261 259 253 245 233 232 235 239 233 231 231 227 225 225 177 207 250 264
292 291 289 288 287 287 286 285 285 282 279 277 276 274 271 275 277 278 275 272 273 271 265 256 265 260 259 258 258 252 258 257 252 249 248 247 248 237 231 230 225 220 224 208 220 221 233
290 287 284 284 284 284 282 282 281 280 279 277 275 275 275 271 273 273 272 275 268 271 267 256 253 262 258 262 258 259 250 256 260 255 254 241 236 232 230 229 228 218 220 205 226 247 269
287 286 284 284 284 284 284 283 281 279 277 276 274 269 269 269 271 271 270 269 268 268 265 265 255 256 259 265 257 254 250 246 254 256 252 247 238 242 242 234 228 203 208 213 202 230 266
289 287 285 285 284 284 284 284 284 284 283 280 276 271 269 271 266 268 269 266 263 261 261 262 263 258 260 260 255 254 256 252 243 248 254 244 246 240 236 241 231 212 204 209 197 213 249
291 289 287 285 285 284 284 283 283 282 280 279 278 276 272 270 271 266 265 265 262 259 265 267 266 262 257 252 253 253 250 253 252 254 257 257 250 245 234 237 233 214 208 205 209 209 227
295 292 289 288 286 285 283 282 280 278 278 276 274 270 267 267 265 266 263 261 261 264 258 254 259 257 257 252 250 251 254 246 246 246 246 244 241 244 242 241 244 226 218 213 212 219 225
297 296 294 291 288 286 284 283 281 278 276 274 273 272 271 267 266 264 260 259 262 258 256 253 250 252 252 253 249 250 253 252 244 246 247 248 249 243 238 236 236 240 231 224 218 222 229
300 300 299 297 293 290 288 286 284 282 281 277 273 273 276 272 269 266 262 260 260 255 252 248 249 245 246 244 246 248 245 250 248 239 240 242 242 232 236 238 235 232 240 223 225 225 228
306 306 304 301 299 297 295 293 291 289 289 286 282 279 278 272 270 267 266 264 258 252 242 243 241 241 240 238 240 239 238 237 242 247 237 236 240 233 226 231 233 231 226 226 229 232 230
308 306 305 305 304 303 301 299 296 294 291 289 287 284 279 273 269 268 263 256 252 247 240 236 239 236 233 235 233 236 239 237 235 248 246 234 233 234 236 224 233 234 237 234 233 229 232
310 310 310 309 307 306 305 303 301 298 295 293 288 285 274 269 269 260 257 249 242 238 235 231 229 229 228 230 232 232 231 225 207 205 247 251 235 231 229 229 228 229 229 233 235 240 241
315 313 312 311 312 312 310 308 304 299 292 286 280 275 264 255 254 249 242 240 234 231 229 231 225 227 224 222 223 225 225 212 198 204 203 226 244 232 232 234 220 226 229 231 233 235 239
315 316 317 318 319 319 317 312 307 298 288 283 277 272 264 247 244 245 249 251 241 234 236 235 228 228 224 221 217 221 215 210 204 201 204 207 219 236 234 227 219 225 218 235 236 239 239
319 320 321 321 322 324 324 324 317 297 298 309 295 274 261 256 241 240 240 237 243 241 240 236 235 230 225 223 220 214 214 213 208 201 204 207 215 217 233 238 224 219 218 218 237 242 245
322 321 320 319 321 323 325 322 317 297 293 298 304 292 267 254 247 241 239 239 237 246 235 241 238 234 220 220 222 212 215 208 205 197 203 205 211 214 227 227 227 216 219 216 217 236 248
324 324 323 322 322 323 324 321 312 301 291 273 284 289 281 261 252 246 242 240 241 247 249 243 237 234 230 228 223 219 209 208 206 196 200 203 205 209 224 225 222 228 222 216 213 216 229
335 333 331 330 327 324 321 317 314 299 287 277 272 277 281 277 270 256 241 238 245 251 246 243 239 218 230 232 229 226 216 211 206 199 198 202 202 207 218 223 227 226 219 212 209 216 218
341 337 334 332 331 331 327 320 309 298 288 279 276 272 278 273 274 266 253 247 242 253 251 241 246 252 236 233 227 228 225 220 207 202 202 195 199 203 214 219 225 222 220 214 214 220 215
340 339 340 340 341 339 337 328 316 302 285 280 279 277 277 274 282 265 254 241 255 257 234 224 239 243 238 239 222 216 221 222 218 203 202 201 201 200 207 215 227 227 222 217 211 220 224
344 349 352 351 348 349 349 345 339 329 315 290 281 281 284 279 269 258 252 252 247 246 227 218 203 224 227 234 253 210 209 213 215 214 206 204 203 198 203 213 223 218 210 210 209 220 218
359 358 0 2 0 0 359 356 351 346 338 326 308 298 300 299 259 258 255 258 258 245 226 222 205 221 182 218 209 215 195 212 209 211 216 203 200 199 189 199 209 191 194 203 213 221 224
Height
5901 5899 5898 5897 5896 5895 5894 5893 5892 5891 5890 5889 5888 5887 5886 5885 5884 5882 5881 5880 5879 5878 5878 5877 5876 5876 5875 5876 5876 5876 5878 5879 5880 5883 5884 5887 5889 5890 5891 5889 5895 5900 5902 5903 5904 5902 5897
5898 5896 5895 5894 5892 5891 5890 5889 5888 5887 5887 5886 5886 5885 5884 5883 5882 5881 5880 5879 5878 5877 5876 5875 5875 5874 5874 5874 5874 5871 5874 5876 5878 5880 5882 5884 5889 5890 5890 5887 5891 5896 5898 5903 5904 5906 5904
5894 5893 5891 5890 5888 5887 5886 5885 5884 5883 5882 5882 5881 5881 5881 5880 5879 5878 5878 5876 5875 5875 5874 5874 5873 5872 5872 5872 5871 5870 5870 5873 5875 5878 5879 5883 5885 5886 5887 5889 5888 5892 5896 5901 5904 5908 5904
5890 5888 5887 5886 5884 5883 5882 5880 5880 5879 5878 5877 5876 5875 5876 5875 5875 5874 5874 5873 5872 5871 5871 5871 5871 5871 5869 5870 5870 5869 5869 5869 5871 5873 5876 5878 5880 5884 5886 5889 5888 5888 5892 5895 5899 5908 5903
5886 5884 5883 5882 5881 5879 5878 5876 5875 5874 5872 5871 5870 5870 5869 5869 5869 5869 5868 5868 5867 5867 5867 5866 5868 5868 5868 5869 5868 5867 5866 5866 5868 5869 5870 5873 5875 5879 5882 5885 5888 5889 5892 5896 5901 5901 5904
5882 5880 5879 5877 5876 5874 5873 5871 5870 5868 5867 5866 5865 5863 5863 5863 5863 5863 5862 5862 5862 5862 5862 5861 5863 5865 5866 5865 5865 5864 5863 5864 5864 5866 5867 5869 5871 5873 5876 5879 5884 5891 5894 5895 5897 5901 5901
5878 5876 5874 5872 5870 5868 5867 5865 5864 5862 5861 5861 5860 5858 5858 5857 5858 5857 5856 5856 5858 5857 5857 5856 5858 5859 5860 5860 5860 5861 5861 5861 5862 5862 5864 5865 5866 5870 5874 5878 5886 5890 5892 5893 5899 5898 5898
5871 5869 5866 5864 5862 5860 5858 5857 5856 5855 5854 5853 5852 5852 5851 5848 5851 5850 5849 5849 5849 5849 5851 5851 5850 5854 5851 5853 5855 5856 5857 5858 5858 5859 5859 5860 5861 5868 5871 5873 5878 5884 5888 5889 5890 5894 5898
5864 5861 5858 5855 5853 5850 5848 5847 5845 5845 5844 5843 5843 5843 5843 5840 5840 5841 5840 5842 5841 5839 5841 5848 5844 5846 5846 5846 5849 5851 5851 5853 5855 5856 5856 5857 5861 5862 5864 5866 5871 5877 5883 5886 5884 5886 5888
5855 5852 5849 5845 5843 5840 5838 5836 5834 5833 5832 5832 5831 5831 5832 5833 5830 5831 5830 5834 5829 5832 5829 5842 5835 5838 5840 5840 5843 5843 5846 5847 5848 5853 5852 5853 5855 5856 5856 5860 5865 5870 5880 5884 5879 5882 5881
5845 5842 5838 5835 5832 5829 5826 5824 5823 5822 5821 5819 5819 5819 5819 5820 5820 5818 5821 5824 5824 5823 5817 5828 5828 5831 5832 5834 5837 5837 5836 5838 5842 5844 5845 5852 5850 5852 5852 5856 5859 5869 5874 5878 5879 5881 5878
5832 5828 5825 5822 5819 5816 5813 5810 5808 5807 5806 5806 5805 5805 5806 5804 5807 5805 5807 5810 5811 5813 5804 5813 5813 5821 5825 5826 5828 5827 5828 5831 5834 5834 5835 5844 5845 5845 5849 5851 5854 5865 5865 5870 5873 5877 5873
5818 5814 5810 5807 5804 5800 5798 5795 5793 5791 5790 5789 5789 5789 5789 5791 5789 5793 5792 5793 5797 5796 5799 5804 5804 5805 5811 5816 5817 5817 5820 5820 5825 5827 5829 5837 5837 5840 5843 5845 5847 5853 5857 5859 5862 5862 5862
5803 5798 5794 5789 5785 5781 5778 5776 5775 5773 5771 5771 5771 5771 5772 5769 5772 5772 5775 5777 5778 5782 5787 5791 5786 5791 5793 5800 5805 5807 5807 5811 5814 5816 5821 5824 5827 5833 5839 5838 5841 5844 5848 5849 5850 5854 5860
5786 5780 5775 5770 5765 5761 5756 5753 5751 5750 5748 5747 5750 5749 5749 5748 5748 5750 5753 5755 5761 5767 5767 5766 5769 5774 5779 5781 5788 5791 5794 5798 5806 5808 5810 5816 5819 5828 5828 5832 5835 5836 5834 5848 5847 5852 5853
5768 5761 5754 5748 5741 5736 5732 5728 5724 5722 5720 5719 5723 5724 5722 5719 5720 5723 5727 5736 5740 5741 5744 5747 5750 5758 5762 5763 5763 5773 5781 5788 5791 5798 5801 5805 5807 5814 5821 5823 5824 5825 5834 5837 5837 5839 5840
5748 5740 5732 5724 5716 5709 5704 5698 5694 5691 5687 5685 5689 5690 5689 5685 5688 5693 5701 5707 5712 5715 5718 5719 5727 5736 5743 5746 5746 5750 5761 5774 5780 5782 5790 5795 5796 5804 5808 5808 5815 5819 5820 5825 5831 5833 5833
5727 5717 5707 5698 5688 5679 5672 5665 5659 5655 5652 5648 5652 5655 5651 5647 5655 5659 5667 5674 5680 5685 5689 5695 5699 5707 5716 5723 5727 5734 5744 5753 5767 5774 5774 5782 5787 5787 5792 5798 5804 5809 5814 5819 5817 5824 5828
5705 5693 5680 5668 5657 5646 5636 5627 5621 5616 5611 5611 5611 5614 5615 5611 5618 5626 5633 5641 5647 5654 5657 5661 5667 5676 5689 5702 5708 5714 5723 5738 5743 5746 5762 5770 5768 5774 5781 5785 5787 5792 5802 5807 5814 5819 5814
5678 5667 5654 5639 5625 5612 5601 5592 5585 5580 5575 5575 5575 5581 5585 5582 5587 5589 5594 5602 5608 5616 5622 5624 5641 5646 5652 5667 5681 5695 5703 5716 5727 5735 5739 5756 5752 5751 5759 5774 5782 5783 5789 5796 5802 5802 5808
5657 5642 5627 5613 5599 5591 5580 5570 5562 5555 5552 5552 5553 5559 5560 5569 5572 5574 5578 5581 5586 5593 5599 5597 5615 5618 5622 5634 5648 5666 5678 5691 5703 5714 5718 5725 5725 5737 5747 5759 5770 5775 5780 5785 5787 5795 5797
5634 5621 5609 5599 5590 5581 5571 5559 5549 5546 5544 5545 5545 5546 5550 5557 5558 5562 5568 5573 5565 5575 5574 5583 5585 5596 5603 5611 5620 5639 5655 5673 5684 5693 5702 5710 5714 5726 5733 5742 5752 5762 5768 5774 5779 5785 5788
5619 5608 5598 5589 5580 5573 5564 5555 5548 5544 5542 5540 5543 5542 5542 5545 5548 5552 5556 5556 5557 5554 5562 5568 5570 5577 5585 5590 5599 5618 5633 5654 5669 5683 5691 5698 5705 5714 5718 5730 5739 5744 5748 5762 5770 5777 5781
5608 5598 5588 5580 5571 5564 5558 5551 5545 5542 5539 5538 5539 5538 5538 5540 5540 5541 5543 5544 5544 5548 5552 5558 5559 5562 5571 5571 5580 5599 5619 5639 5653 5666 5673 5685 5690 5697 5706 5718 5724 5730 5744 5753 5760 5767 5774
5599 5590 5581 5572 5564 5557 5551 5546 5541 5538 5536 5535 5534 5533 5533 5533 5533 5533 5533 5534 5537 5539 5542 5545 5547 5551 5556 5563 5579 5590 5608 5618 5635 5650 5657 5667 5676 5683 5691 5698 5709 5722 5735 5746 5752 5758 5765
5594 5585 5575 5566 5558 5552 5546 5541 5537 5534 5533 5531 5529 5528 5527 5527 5529 5527 5527 5529 5532 5533 5533 5536 5540 5543 5549 5556 5567 5578 5588 5599 5622 5638 5649 5656 5663 5669 5678 5685 5691 5710 5726 5739 5745 5747 5756
5591 5580 5571 5562 5554 5548 5542 5537 5533 5530 5528 5526 5524 5523 5521 5520 5523 5522 5523 5524 5526 5527 5526 5530 5533 5537 5544 5550 5557 5567 5579 5586 5602 5618 5636 5641 5650 5653 5665 5677 5687 5700 5718 5733 5732 5739 5742
5587 5578 5568 5560 5553 5546 5540 5534 5530 5526 5523 5522 5519 5517 5516 5516 5518 5516 5517 5519 5520 5522 5524 5527 5531 5535 5539 5548 5553 5560 5571 5580 5594 5610 5617 5618 5627 5646 5660 5670 5683 5697 5712 5717 5721 5724 5732
5587 5578 5569 5561 5554 5547 5540 5534 5529 5525 5521 5518 5515 5514 5512 5511 5513 5511 5512 5515 5515 5516 5518 5521 5526 5528 5533 5545 5552 5559 5568 5575 5587 5599 5601 5614 5630 5635 5652 5666 5675 5689 5699 5706 5709 5713 5723